SCP
0 0 0 0 0 0 0 0 0 0 0 0 0 0 0 0 0 0 0 0 0 0 0 0 0 0 0 0 0 0 0 0 0 0 0 0 0 0 0 0 0 0 0
0 0 0 0 0 0 0 0 0 0 0 0 0 0 0 0 0 0 0 0 0 0 0 0 0 0 0 0 0 0 0 0 0 0 0 0 0 0 0 0 0 0 0
0 0 0 0 0 0 0 0 0 0 0 0 0 0 0 0 0 0 0 0 0 0 0 0 0 0 0 0 0 0 0 0 0 0 0 0 0 0 0 0 0 0 0
0 0 0 0 0 0 0 0 0 0 0 0 0 0 0 0 0 0 0 0 0 0 0 0 0 0 0 0 0 0 0 0 0 0 0 0 0 0 0 0 0 0 0
0 0 0 0 0 0 0 0 0 0 0 0 0 0 0 0 0 0 0 0 0 0 0 0 0 0 0 0 0 0 0 0 0 0 0 0 0 0 0 0 0 0 0
0 0 0 0 0 0 0 0 0 0 0 0 0 0 0 0 0 0 0 0 0 0 0 0 0 0 0 0 0 0 0 0 0 0 0 0 0 0 0 0 0 0 0
0 0 0 0 0 0 0 0 0 0 0 0 0 0 0 0 0 0 0 0 0 0 0 0 0 0 0 0 0 0 0 0 0 0 0 0 0 0 0 0 0 0 0
0 0 0 0 0 0 0 0 0 0 0 0 0 0 0 0 0 0 0 0 0 0 0 0 0 0 0 0 0 0 0 0 0 0 0 0 0 0 0 0 0 0 0
0 0 0 0 0 0 0 0 0 0 0 0 0 0 0 0 0 0 0 0 0 0 0 0 0 0 0 0 0 0 0 0 0 0 0 0 0 0 0 0 0 0 0
0 0 0 0 0 0 0 0 0 0 0 0 0 0 0 0 0 0 0 0 0 0 0 0 0 0 0 0 0 0 0 0 0 0 0 0 0 0 0 0 0 0 0
0 0 0 0 0 0 0 0 0 0 0 0 0 0 0 0 0 0 0 0 0 0 0 0 0 0 0 0 0 0 0 0 0 0 0 0 0 0 0 0 0 0 0
0 0 0 0 0 0 0 0 0 0 0 0 0 0 0 0 0 0 0 0 0 0 0 0 0 0 0 0 0 0 0 0 0 0 0 0 0 0 0 0 0 0 0
0 0 0 0 0 0 0 0 0 0 0 0 0 0 0 0 0 0 0 0 0 0 0 0 0 0 0 0 0 0 0 0 0 0 0 0 0 0 0 0 0 0 0
0 0 0 0 0 0 0 0 0 0 0 0 0 0 0 0 0 0 0 0 0 0 0 0 0 0 0 0 0 0 0 0 0 0 0 0 0 0 0 0 0 0 0
0 0 0 0 0 0 0 0 0 0 0 0 0 0 0 0 0 0 0 0 0 0 0 0 0 0 0 0 0 0 0 0 0 0 0 0 0 0 0 0 0 0 0
0 0 0 0 0 0 0 0 0 0 0 0 0 0 0 0 0 0 0 0 0 0 0 0 0 0 0 0 0 0 0 0 0 0 0 0 0 0 0 0 0 0 0
0 0 0 0 0 0 0 0 0 0 0 0 0 0 0 0 0 0 0 0 0 0 0 0 0 0 0 0 0 0 0 0 0 0 0 0 0 0 0 0 0 0 0
0 0 0 0 0 0 0 0 0 0 0 0 0 0 0 0 0 0 0 0 0 0 0 0 0 0 0 0 0 0 0 0 0 0 0 0 0 0 0 0 0 0 0
0 0 0 0 0 0 0 0 0 0 0 0 0 0 0 0 0 0 0 0 0 0 0 0 0 0 0 0 0 0 0 0 0 0 0 0 0 0 0 0 0 0 0
0 0 0 0 0 0 0 0 0 0 0 0 0 0 0 0 0 0 0 0 0 0 0 0 0 0 0 0 0 0 0 0 0 0 0 0 0 0 0 0 0 0 0
0 0 0 0 0 0 0 0 0 0 0 0 0 0 0 0 0 0 0 0 0 0 0 0 0 0 0 0 0 0 0 0 0 0 0 0 0 0 0 0 0 0 0
0 0 0 0 0 0 0 0 0 0 0 0 0 0 0 0 0 0 0 0 0 0 0 0 0 0 0 0 0 0 0 0 0 0 0 0 0 0 0 0 0 0 0
0 0 0 0 0 0 0 0 0 0 0 0 0 0 0 0 0 0 0 0 0 0 0 0 0 0 0 0 0 0 0 0 0 0 0 0 0 0 0 0 0 0 0
0 0 0 0 0 0 0 0 0 0 0 0 0 0 0 0 0 0 0 0 0 0 0 0 0 0 0 0 0 0 0 0 0 0 0 0 0 0 0 0 0 0 0
0 0 0 0 0 0 0 0 0 0 0 0 0 0 0 0 0 0 0 0 0 0 0 0 0 0 0 0 0 0 0 0 0 0 0 0 0 0 0 0 0 0 0
0 0 0 0 0 0 0 0 0 0 0 0 0 0 0 0 0 0 0 0 0 0 0 0 0 0 0 0 0 0 0 0 0 0 0 0 0 0 0 0 0 0 0
Wind_Speed
7 6 6 5 5 5 4 4 4 3 4 3 3 3 3 3 3 3 3 3 3 3 3 4 4 3 3 3 3 3 4 5 7 6 5 6 8 7 7 7 7 7 7
6 6 6 5 5 5 5 4 4 4 4 4 3 3 3 3 3 4 4 4 4 4 4 4 4 3 4 3 3 4 4 5 6 8 6 6 7 7 8 8 7 6 7
6 6 6 5 5 5 5 4 4 4 4 4 4 4 3 3 3 3 4 4 4 4 4 5 4 4 4 3 4 4 4 4 5 6 7 5 6 6 7 7 8 7 7
6 6 6 6 6 5 4 4 4 4 4 4 4 4 4 3 3 3 3 3 4 4 4 4 4 4 4 4 4 4 4 5 5 6 6 6 6 6 6 7 7 6 7
6 6 6 5 5 4 4 4 4 4 4 4 3 3 3 3 3 3 4 4 4 4 3 3 3 3 4 4 3 4 4 5 5 5 6 6 6 5 6 6 7 7 7
7 6 5 5 5 5 4 4 4 4 4 3 4 3 3 3 3 4 4 3 3 4 3 3 3 3 3 5 6 6 6 6 6 6 6 7 7 7 6 6 7 7 7
6 5 5 5 5 5 4 4 4 4 4 4 4 4 4 3 4 5 5 4 4 4 4 3 3 3 3 3 5 7 7 9 9 8 8 9 8 7 7 8 7 8 8
5 5 5 5 5 4 4 4 4 4 4 4 4 4 3 3 3 4 5 5 4 4 4 4 4 4 3 4 4 5 6 6 7 7 7 8 8 7 7 8 8 9 9
5 5 5 5 5 4 5 5 4 4 3 3 3 3 3 3 3 3 4 3 3 4 4 4 4 4 5 5 5 5 6 5 6 8 9 10 10 10 8 5 5 6 7
5 5 4 5 5 5 5 4 3 3 3 2 2 3 3 3 2 3 4 3 3 3 3 3 4 5 6 6 5 5 6 5 5 5 6 7 7 7 7 6 5 6 6
3 3 3 4 4 4 3 3 3 3 2 2 2 2 2 2 3 3 4 3 3 3 3 3 3 5 6 6 6 5 6 5 5 5 5 5 4 4 4 4 5 5 6
3 3 3 3 3 3 3 2 2 3 3 2 2 2 1 1 2 3 4 4 3 3 3 3 3 4 5 5 4 4 5 4 3 3 4 4 4 4 4 5 6 6 7
3 3 3 2 2 3 4 3 3 3 3 2 2 2 2 1 2 3 4 4 4 3 2 3 3 3 3 3 3 4 3 2 3 3 4 4 4 5 5 5 5 6 7
4 3 3 3 3 2 2 3 3 3 3 3 3 3 2 2 2 2 2 2 2 2 2 1 2 2 2 2 2 2 2 2 3 3 4 4 4 4 4 4 5 5 5
4 3 3 3 3 2 2 2 2 2 3 3 3 3 3 3 3 3 2 2 2 1 1 1 1 1 1 2 2 2 2 2 2 3 3 4 4 4 4 4 4 4 5
4 4 3 3 3 2 2 1 1 2 2 2 2 2 2 3 3 2 3 2 2 2 1 2 2 2 2 2 2 2 2 2 2 3 3 4 4 5 5 5 4 5 5
5 4 3 3 3 3 3 3 2 1 1 2 2 3 3 3 2 2 2 2 2 2 2 2 2 2 3 3 3 3 3 3 2 3 3 4 4 5 5 5 5 5 5
4 4 4 3 3 3 4 3 3 3 2 1 1 2 2 2 2 2 1 1 1 1 2 2 3 3 3 3 3 3 3 3 2 3 3 4 4 5 5 5 5 6 6
4 3 3 3 3 3 3 3 3 3 2 2 1 1 1 1 1 1 1 2 2 2 2 3 3 3 3 3 3 3 3 3 3 3 4 4 4 4 5 5 5 6 6
3 3 3 3 3 3 3 3 3 3 2 2 2 2 1 1 2 2 2 2 2 3 3 3 3 3 3 3 3 3 3 3 3 3 4 4 4 4 5 6 6 6 6
3 3 4 3 3 3 3 3 3 3 3 3 2 2 3 2 3 3 3 3 3 4 3 3 3 3 3 3 3 4 4 4 4 4 4 4 4 4 5 5 6 6 6
3 3 3 3 3 3 3 3 3 3 3 3 2 2 3 2 3 3 3 3 3 3 3 3 4 3 3 4 4 4 4 5 4 4 4 4 4 4 5 5 5 5 5
3 3 3 2 2 3 3 3 3 3 3 3 3 2 3 3 3 4 4 3 3 3 3 3 4 4 4 4 4 5 5 5 5 5 5 5 4 4 4 5 6 6 5
3 3 3 3 3 3 3 3 3 3 3 3 3 3 4 4 4 4 4 3 3 4 3 4 4 6 7 5 4 4 5 5 5 5 7 6 5 5 4 5 5 6 5
2 3 3 3 3 3 3 3 4 4 4 4 4 4 4 4 4 4 4 4 4 4 5 5 4 5 7 7 6 6 7 8 7 5 5 5 5 5 5 5 5 5 5
3 3 3 3 3 3 4 4 4 4 4 4 4 4 4 4 4 4 4 4 4 4 5 5 6 7 7 7 7 8 8 8 8 7 4 4 5 5 5 4 5 5 5
Wind_Direction
213 211 208 207 204 204 208 213 214 212 209 212 217 217 218 219 215 213 215 212 211 218 220 225 235 236 239 240 241 244 247 250 264 280 283 290 293 296 300 296 296 295 293
209 208 207 205 200 202 207 210 206 206 207 209 208 209 216 219 215 210 210 212 213 219 224 230 240 241 244 247 246 248 252 254 264 279 287 293 294 298 298 299 299 296 293
205 203 203 204 203 206 208 204 202 202 203 203 205 209 211 213 217 218 221 218 221 226 228 230 235 235 243 246 252 256 258 261 262 272 282 291 294 297 301 299 298 294 293
202 203 207 208 208 208 204 201 202 202 200 201 205 210 210 210 214 212 217 221 226 232 235 235 236 236 243 248 251 255 261 266 267 271 278 287 291 300 300 300 301 301 300
201 206 211 208 205 203 201 200 198 201 204 202 203 205 208 210 211 211 213 219 225 233 237 239 242 249 255 254 255 259 259 262 268 272 278 287 289 298 298 300 296 303 300
203 208 205 199 199 201 199 194 193 201 203 201 205 208 211 215 209 214 218 222 226 232 239 244 247 244 243 256 263 268 267 264 268 273 277 280 287 292 296 295 297 300 301
203 204 200 198 200 202 195 193 198 203 205 207 209 211 219 224 215 221 222 231 232 236 242 246 248 251 251 262 265 268 268 267 267 269 273 277 285 288 290 290 289 291 286
201 203 202 199 201 197 198 203 204 202 206 210 213 214 221 231 220 227 225 230 240 244 245 245 249 257 256 264 271 275 275 273 273 269 272 279 282 286 283 285 289 290 286
204 206 203 200 198 196 203 210 207 203 208 214 216 215 223 235 224 232 227 229 238 248 249 247 249 257 262 265 267 272 279 283 289 285 286 286 290 288 283 281 282 285 289
212 212 205 200 199 202 206 206 205 204 213 209 217 223 228 242 240 236 229 229 242 252 252 251 248 256 267 268 264 267 276 286 294 295 291 293 289 287 284 272 272 276 284
208 203 199 198 199 202 199 196 192 192 196 205 217 230 234 245 247 238 233 228 238 247 252 256 254 261 272 276 274 268 278 293 291 289 291 292 291 291 292 288 278 270 272
182 187 193 192 187 182 180 188 187 184 190 204 212 234 233 236 242 240 237 236 244 245 252 260 269 278 283 285 282 287 295 296 289 290 292 297 302 303 303 297 288 278 268
177 185 183 178 182 179 179 182 184 190 199 207 212 226 237 231 240 245 244 247 248 250 262 275 289 294 299 294 297 303 296 282 281 285 291 297 301 302 302 299 290 283 278
183 187 175 175 180 177 180 184 192 196 203 210 219 227 236 238 242 243 240 241 242 244 256 274 286 292 290 294 297 295 286 285 282 282 289 295 300 303 303 305 303 305 295
182 184 182 183 180 179 185 198 208 219 218 218 221 219 225 237 244 249 236 231 233 229 227 238 253 259 268 277 283 289 289 279 278 284 289 295 301 305 306 308 302 299 289
181 184 187 185 180 182 181 193 224 238 256 244 245 241 249 258 261 240 236 232 218 197 202 228 244 254 262 272 279 285 285 287 295 296 292 292 298 303 306 307 304 298 292
190 186 185 185 183 185 187 191 200 210 215 230 242 253 256 258 246 232 224 199 188 186 216 232 245 256 264 268 272 276 281 288 292 285 289 294 296 298 300 303 303 302 297
192 189 188 191 189 190 193 195 198 199 208 232 260 267 272 267 261 254 225 175 204 216 241 245 253 258 261 263 265 270 277 283 282 282 284 288 292 296 298 301 301 303 302
191 189 188 190 191 191 190 192 199 205 213 225 244 250 268 271 274 275 182 217 224 231 239 246 253 256 258 260 261 264 267 269 274 276 277 281 285 291 296 297 297 299 296
194 187 182 182 182 182 185 191 198 201 208 215 229 237 210 203 223 236 228 237 239 244 245 249 253 255 257 257 256 255 259 261 264 266 273 280 283 286 291 295 298 299 298
188 181 177 177 184 187 191 199 201 202 210 222 233 229 213 219 229 235 238 240 243 247 250 252 253 252 250 251 251 250 253 257 258 260 267 276 282 286 290 292 296 297 300
184 182 184 187 187 190 195 199 201 206 214 223 234 230 219 228 236 240 244 248 251 254 257 256 255 251 246 243 242 244 247 252 255 257 265 271 275 282 287 289 293 298 301
184 185 188 191 191 188 193 200 207 215 222 228 228 227 226 234 240 244 248 251 252 254 253 252 255 255 249 244 242 240 243 247 251 252 256 262 268 275 280 284 289 296 300
190 194 198 198 196 199 206 212 217 222 226 229 231 232 234 238 244 248 251 252 254 255 251 249 250 253 255 256 252 248 247 251 253 249 248 254 263 268 272 279 285 291 295
194 203 208 209 207 208 212 221 226 228 231 233 235 237 239 242 246 251 253 252 255 257 258 257 252 251 251 253 255 254 255 258 259 255 251 252 257 262 268 274 279 287 290
204 210 218 219 219 219 219 225 230 231 233 236 237 238 239 242 245 249 251 250 252 254 257 256 253 254 257 256 253 255 257 258 256 252 250 254 256 259 265 267 272 277 282